Regional Weather Roundup
Issued by NWS Newport/Morehead, NC

Current Version | Previous Version | Text Only | Print | Product List | Glossary On
Versions: 1 2 3 4 5 6 7 8 9 10 11 12 13 14 15 16 17 18 19 20 21 22 23 24 25 26 27 28 29 30 31 32 33 34 35 36 37 38 39 40 41 42 43 44 45 46 47 48 49 50
610
ASUS42 KMHX 242325
RWRMHX
WEATHER ROUNDUP FOR EASTERN NORTH CAROLINA
NATIONAL WEATHER SERVICE NEWPORT/MOREHEAD CITY NC
700 PM EDT SUN SEP 24 2017

NOTE: "FAIR" INDICATES FEW OR NO CLOUDS BELOW 12,000 FEET
WITH NO SIGNIFICANT WEATHER AND/OR OBSTRUCTIONS TO VISIBILITY

NCZ015>017-031-032-045>047-102-103-250000-
NORTH COAST

CITY           SKY/WX    TMP DP  RH WIND       PRES   REMARKS
EDENTON        PTCLDY    76  62  60 CALM      30.00R
ELIZABETH CITY PTCLDY    75  68  78 NE13      29.99S
KITTY HAWK     CLOUDY    71  65  81 CALM      29.97F
MANTEO         PTCLDY    72  67  83 E9        29.99S

$$

NCZ045>047-081-094-103-104-250000-
CENTRAL COAST

CITY           SKY/WX    TMP DP  RH WIND       PRES   REMARKS
FRISCO         PTCLDY    74  69  85 NE9G17    29.95F

$$

NCZ095-097-098-100-101-250000-
SOUTHERN COAST

CITY           SKY/WX    TMP DP  RH WIND       PRES   REMARKS
BEAUFORT       PTCLDY    76  65  68 NE8       29.94F
CEDAR ISLAND   NOT AVBL
JACKSONVILLE   MOCLDY    79  70  74 NE7       29.95S
PINEY ISLAND     N/A    N/A N/A N/A NE16G23   29.95F
WILMINGTON     PTCLDY    80  70  71 N3        29.94S


$$

NCZ011>013-027>030-043-044-078>080-089-090>093-098-250000-
COASTAL PLAIN

CITY           SKY/WX    TMP DP  RH WIND       PRES   REMARKS
AHOSKIE        PTCLDY    73  61  64 CALM      30.01R
CLINTON        CLOUDY    77  69  76 CALM      29.98S
ELIZABETHTOWN  NOT AVBL
GOLDSBORO      PTCLDY    79  68  69 NE7       29.96R
GREENVILLE     PTCLDY    79  64  61 NE5       30.00R
HAVELOCK       MOCLDY    77  70  79 NE12      29.96F
KENANSVILLE    CLOUDY    75  70  83 CALM      29.97S
KINSTON        PTCLDY    79  68  69 CALM      29.98R
NEW BERN       MOCLDY    78  65  63 NE7       29.97S
RICHLANDS      MOCLDY    77  69  76 CALM      29.97R
ROCKY MOUNT    PTCLDY    75  65  70 NE5       29.99R
WASHINGTON     CLOUDY    76  66  72 NE3       29.99R
WHITEVILLE     CLOUDY    77  69  76 CALM      29.96S

$$

AMZ130-135-150-152-154-156-158-170-250-252-270-ANZ085-086-088-633-658-670-250000-
MARINE OBSERVATIONS

STATION/POSITION TIME  TEMP    WIND        PRES    WAVE   SWELL
                       AIR SEA DIR/SP/G            HT/PER HT/PER
                 (UTC) (F)     (DEG/KT/KT) (MB)    (FT/S) (FT/S)
CHESAPEAKE LIGHT NOT AVBL
64 E VA BEACH    2250   71 71   30/ 12/ 16 1015.8    8/14   8/14
DUCK             2300   74 77   30/ 14/ 16 1015.0
2 E DUCK         2300      76                N/A     5/14   3/14
OREGON INLET     2300   72 78   40/ 11/ 14 1015.2
13E OREGON INLT  2248      75                N/A     6/13   7/13
HATTERAS CG      2300   74 78   40/ 12/ 18 1014.2
DIAMOND BUOY     2250   74 81   30/ 19/ 25 1013.3   11/16  10/16
CAPE LOOKOUT     2300   77      30/ 21/ 24 1013.7
BEAUFORT LAB     2300   77 77   30/  7/ 11 1013.5
30 SE NEW RVR IN 2308   78      50/ 19/ 27 1013.1
30 SE NEW RVR IN NOT AVBL
27 SE WRIGHTSVLE 2308   79 80   70/ 17/ 25 1013.2
5 SE WRIGHTSVLE  2308   79 78   60/ 12/ 17 1013.4
225 S CAPE HAT   2250   80 81   30/ 31/ 37 1004.1   22/15  13/15
41 SE CHARLESTON 2310   80 81   40/ 19/ 25 1012.7

$$




USA.gov is the U.S. government's official web portal to all federal, state and local government web resources and services.